User: anonymous   Login
Location: *
(32.3758°S, 63.1185°E)
Time: 21:27:20
(UTC+00:00)
Language:

CZ-6A DEB - Orbit

View from above orbital plane
View from above orbital plane
View from above satellite
View from above satellite

Ground track
Ground track

The orbit data is extracted from the following two-line orbital elements,

1 54934U 22151RX  24148.10010227  .00025221  00000-0  52439-2 0  9995
2 54934  99.1487 209.7844 0081778  67.6671 293.3168 14.57934373 80661
Epoch (UTC): 27 May 2024 02:24:08
Eccentricity: 0.0081778
inclination: 99.1487°
perigee height: 642 km
apogee height: 758 km
right ascension of ascending node: 209.7844°
argument of perigee: 67.6671°
revolutions per day: 14.57934373
mean anomaly at epoch: 293.3168°
orbit number at epoch: 8066

The dashed part of the orbit path shows where the satellite is in the earth's shadow,  

DLR